| time (UTC) | temp F | wind direction | speed knots | gust knots | rain 1hr in | rain 24hr in | rain mn in | humidity % | barometer mb |
| 20260506114016 | 60 | 245 | 4.3 | 8.7 | 0.00 | 0.02 | 0.00 | 78 | 1007.5 |
| 20260506113516 | 60 | 210 | 3.5 | 11.3 | 0.00 | 0.02 | 0.00 | 78 | 1007.4 |
| 20260506113016 | 60 | 228 | 5.2 | 11.3 | 0.00 | 0.02 | 0.00 | 77 | 1007.5 |
| 20260506112516 | 60 | 244 | 4.3 | 10.4 | 0.00 | 0.02 | 0.00 | 77 | 1007.4 |
| 20260506112017 | 60 | 191 | 5.2 | 10.4 | 0.00 | 0.02 | 0.00 | 77 | 1007.3 |
| 20260506111528 | 60 | 229 | 3.5 | 8.7 | 0.00 | 0.02 | 0.00 | 77 | 1007.3 |
| 20260506111017 | 60 | 209 | 2.6 | 10.4 | 0.00 | 0.02 | 0.00 | 77 | 1007.2 |
| 20260506110516 | 60 | 233 | 4.3 | 10.4 | 0.00 | 0.02 | 0.00 | 76 | 1007.3 |
| 20260506110016 | 60 | 210 | 7.0 | 10.4 | 0.00 | 0.02 | 0.00 | 75 | 1007.4 |
| 20260506105516 | 60 | 233 | 2.6 | 9.6 | 0.00 | 0.02 | 0.00 | 74 | 1007.2 |
| 20260506105016 | 60 | 232 | 5.2 | 9.6 | 0.00 | 0.02 | 0.00 | 74 | 1007.3 |
| 20260506104516 | 61 | 217 | 5.2 | 9.6 | 0.00 | 0.02 | 0.00 | 74 | 1007.1 |
| 20260506104016 | 61 | 227 | 3.5 | 11.3 | 0.00 | 0.02 | 0.00 | 73 | 1006.8 |
| 20260506103529 | 61 | 230 | 4.3 | 11.3 | 0.00 | 0.02 | 0.00 | 73 | 1006.7 |
| 20260506103016 | 61 | 188 | 4.3 | 10.4 | 0.00 | 0.02 | 0.00 | 73 | 1006.8 |
| 20260506102517 | 61 | 221 | 4.3 | 12.2 | 0.00 | 0.02 | 0.00 | 72 | 1006.9 |
| 20260506102027 | 61 | 270 | 4.3 | 12.2 | 0.00 | 0.02 | 0.00 | 72 | 1007.0 |
| 20260506101517 | 61 | 198 | 5.2 | 8.7 | 0.00 | 0.02 | 0.00 | 72 | 1006.8 |
| 20260506101028 | 61 | 214 | 4.3 | 8.7 | 0.00 | 0.02 | 0.00 | 71 | 1006.6 |
| 20260506100517 | 61 | 262 | 3.5 | 14.8 | 0.00 | 0.02 | 0.00 | 71 | 1006.8 |
| 20260506100017 | 61 | 221 | 5.2 | 14.8 | 0.00 | 0.02 | 0.00 | 70 | 1007.1 |
| 20260506095517 | 61 | 238 | 3.5 | 8.7 | 0.00 | 0.02 | 0.00 | 70 | 1007.0 |
| 20260506095017 | 61 | 219 | 5.2 | 7.8 | 0.00 | 0.02 | 0.00 | 70 | 1007.1 |
| 20260506094529 | 61 | 281 | 4.3 | 7.8 | 0.00 | 0.02 | 0.00 | 70 | 1007.2 |
| 20260506094017 | 61 | 219 | 4.3 | 7.8 | 0.00 | 0.02 | 0.00 | 70 | 1007.0 |
| 20260506093517 | 61 | 226 | 3.5 | 8.7 | 0.00 | 0.02 | 0.00 | 69 | 1007.0 |
| 20260506093017 | 61 | 216 | 4.3 | 10.4 | 0.00 | 0.02 | 0.00 | 69 | 1006.9 |
| 20260506092540 | 60 | 217 | 4.3 | 10.4 | 0.00 | 0.02 | 0.00 | 69 | 1006.9 |
| 20260506092018 | 61 | 209 | 3.5 | 7.8 | 0.00 | 0.02 | 0.00 | 68 | 1007.1 |
| 20260506091518 | 61 | 243 | 3.5 | 7.8 | 0.00 | 0.02 | 0.00 | 68 | 1007.2 |
| 20260506091018 | 61 | 240 | 5.2 | 7.8 | 0.00 | 0.02 | 0.00 | 67 | 1007.1 |
| 20260506090517 | 61 | 232 | 3.5 | 8.7 | 0.00 | 0.02 | 0.00 | 67 | 1007.2 |
| 20260506090018 | 61 | 205 | 5.2 | 9.6 | 0.00 | 0.02 | 0.00 | 66 | 1007.4 |
| 20260506085518 | 61 | 230 | 4.3 | 9.6 | 0.00 | 0.02 | 0.00 | 66 | 1007.2 |
| 20260506085019 | 61 | 161 | 3.5 | 9.6 | 0.00 | 0.02 | 0.00 | 66 | 1007.1 |
| 20260506084529 | 61 | 210 | 5.2 | 11.3 | 0.00 | 0.02 | 0.00 | 65 | 1007.5 |
| 20260506084018 | 61 | 250 | 6.1 | 11.3 | 0.00 | 0.02 | 0.00 | 65 | 1007.5 |
| 20260506083518 | 62 | 233 | 4.3 | 10.4 | 0.00 | 0.02 | 0.00 | 65 | 1007.5 |
| 20260506083018 | 62 | 217 | 5.2 | 9.6 | 0.00 | 0.02 | 0.00 | 64 | 1007.4 |
| 20260506082529 | 62 | 229 | 4.3 | 12.2 | 0.00 | 0.02 | 0.00 | 64 | 1007.2 |
| 20260506082018 | 62 | 217 | 6.1 | 12.2 | 0.00 | 0.02 | 0.00 | 64 | 1007.5 |
| 20260506081518 | 62 | 253 | 4.3 | 8.7 | 0.00 | 0.02 | 0.00 | 63 | 1007.4 |
| 20260506081018 | 62 | 232 | 3.5 | 9.6 | 0.00 | 0.02 | 0.00 | 63 | 1007.4 |
| 20260506080518 | 62 | 229 | 4.3 | 7.0 | 0.00 | 0.02 | 0.00 | 62 | 1007.3 |
| 20260506073519 | 62 | 226 | 7.0 | 13.9 | 0.00 | 0.02 | 0.00 | 60 | 1007.5 |
| 20260506073018 | 62 | 217 | 4.3 | 9.6 | 0.00 | 0.02 | 0.00 | 60 | 1007.5 |
| 20260506072519 | 62 | 239 | 5.2 | 9.6 | 0.00 | 0.02 | 0.00 | 60 | 1007.5 |
| 20260506072018 | 63 | 229 | 5.2 | 14.8 | 0.00 | 0.02 | 0.00 | 59 | 1007.5 |
| 20260506071518 | 63 | 217 | 7.8 | 14.8 | 0.00 | 0.02 | 0.00 | 59 | 1007.6 |
| 20260506071030 | 63 | 231 | 5.2 | 13.9 | 0.00 | 0.02 | 0.00 | 59 | 1007.6 |
| 20260506070518 | 63 | 238 | 6.1 | 12.2 | 0.00 | 0.02 | 0.00 | 58 | 1007.5 |
| 20260506062019 | 62 | 243 | 3.5 | 11.3 | 0.00 | 0.02 | 0.00 | 59 | 1007.9 |
| 20260506061520 | 62 | 237 | 4.3 | 9.6 | 0.00 | 0.02 | 0.00 | 59 | 1007.9 |
| 20260506061017 | 62 | 232 | 4.3 | 8.7 | 0.00 | 0.02 | 0.00 | 59 | 1008.1 |
| 20260506060518 | 62 | 212 | 3.5 | 7.8 | 0.00 | 0.02 | 0.00 | 59 | 1008.2 |
| 20260506051019 | 62 | 255 | 4.3 | 11.3 | 0.00 | 0.02 | 0.00 | 57 | 1008.4 |
| 20260506050518 | 62 | 223 | 3.5 | 7.8 | 0.00 | 0.02 | 0.00 | 57 | 1008.4 |
| 20260506045019 | 62 | 206 | 2.6 | 10.4 | 0.00 | 0.02 | 0.00 | 57 | 1008.5 |
| 20260506044519 | 62 | 168 | 3.5 | 7.0 | 0.00 | 0.02 | 0.00 | 57 | 1008.6 |
| 20260506044018 | 62 | 223 | 1.7 | 6.1 | 0.00 | 0.02 | 0.00 | 57 | 1008.7 |
| 20260506043519 | 62 | 246 | 1.7 | 6.1 | 0.00 | 0.02 | 0.00 | 57 | 1008.6 |
| 20260506043019 | 62 | 247 | 2.6 | 4.3 | 0.00 | 0.02 | 0.00 | 57 | 1008.7 |
| 20260506042519 | 63 | 200 | 2.6 | 6.1 | 0.00 | 0.02 | 0.00 | 56 | 1008.7 |
| 20260506042019 | 63 | 251 | 2.6 | 6.1 | 0.00 | 0.02 | 0.00 | 56 | 1008.5 |
| 20260506041521 | 63 | 232 | 2.6 | 5.2 | 0.00 | 0.02 | 0.00 | 56 | 1008.6 |
| 20260506041032 | 63 | 266 | 2.6 | 5.2 | 0.00 | 0.02 | 0.00 | 56 | 1008.7 |
| 20260506040519 | 63 | 242 | 2.6 | 4.3 | 0.00 | 0.02 | 0.00 | 56 | 1008.7 |
| 20260506040020 | 63 | 197 | 2.6 | 4.3 | 0.00 | 0.02 | 0.00 | 56 | 1008.7 |
| 20260506035520 | 63 | 231 | 2.6 | 4.3 | 0.00 | 0.02 | 0.02 | 56 | 1008.6 |
| 20260506035019 | 63 | 231 | 2.6 | 5.2 | 0.00 | 0.02 | 0.02 | 56 | 1008.8 |
| 20260506034519 | 63 | 231 | 1.7 | 7.0 | 0.00 | 0.02 | 0.02 | 55 | 1008.6 |
| 20260506034041 | 64 | 222 | 3.5 | 7.0 | 0.00 | 0.02 | 0.02 | 55 | 1008.7 |
| 20260506033519 | 64 | 229 | 3.5 | 7.0 | 0.00 | 0.02 | 0.02 | 55 | 1008.8 |
| 20260506033021 | 64 | 265 | 2.6 | 4.3 | 0.00 | 0.02 | 0.02 | 55 | 1008.7 |
| 20260506032530 | 64 | 212 | 2.6 | 4.3 | 0.00 | 0.02 | 0.02 | 54 | 1008.7 |
| 20260506032019 | 64 | 248 | 1.7 | 4.3 | 0.00 | 0.02 | 0.02 | 54 | 1008.7 |
| 20260506031520 | 65 | 219 | 2.6 | 3.5 | 0.00 | 0.02 | 0.02 | 54 | 1008.7 |
| 20260506031041 | 65 | 229 | 1.7 | 6.1 | 0.00 | 0.02 | 0.02 | 54 | 1008.6 |
| 20260506030531 | 65 | 229 | 2.6 | 6.1 | 0.00 | 0.02 | 0.02 | 53 | 1008.7 |
| 20260506030019 | 65 | 223 | 4.3 | 6.1 | 0.00 | 0.02 | 0.02 | 53 | 1008.8 |
| 20260506025519 | 65 | 236 | 4.3 | 6.1 | 0.00 | 0.02 | 0.02 | 53 | 1008.6 |
| 20260506025019 | 65 | 226 | 2.6 | 6.1 | 0.00 | 0.02 | 0.02 | 53 | 1008.6 |
| 20260506024519 | 66 | 220 | 4.3 | 7.0 | 0.00 | 0.02 | 0.02 | 52 | 1008.5 |
| 20260506024019 | 66 | 214 | 4.3 | 8.7 | 0.00 | 0.02 | 0.02 | 52 | 1008.5 |
| 20260506023531 | 66 | 240 | 4.3 | 8.7 | 0.00 | 0.02 | 0.02 | 51 | 1008.7 |
| 20260506023019 | 67 | 235 | 5.2 | 9.6 | 0.00 | 0.02 | 0.02 | 51 | 1008.6 |
| 20260506022519 | 67 | 236 | 5.2 | 9.6 | 0.00 | 0.02 | 0.02 | 51 | 1008.7 |
| 20260506022030 | 67 | 238 | 6.1 | 8.7 | 0.00 | 0.02 | 0.02 | 51 | 1008.8 |
| 20260506021531 | 67 | 226 | 5.2 | 9.6 | 0.00 | 0.02 | 0.02 | 50 | 1008.8 |
| 20260506021019 | 67 | 233 | 4.3 | 9.6 | 0.00 | 0.02 | 0.02 | 50 | 1008.7 |
| 20260506020542 | 67 | 240 | 4.3 | 9.6 | 0.00 | 0.02 | 0.02 | 50 | 1008.8 |
| 20260506020018 | 68 | 210 | 5.2 | 8.7 | 0.00 | 0.02 | 0.02 | 50 | 1008.8 |
| 20260506015519 | 68 | 235 | 5.2 | 8.7 | 0.00 | 0.02 | 0.02 | 50 | 1008.6 |
| 20260506015019 | 68 | 225 | 4.3 | 8.7 | 0.00 | 0.02 | 0.02 | 49 | 1008.8 |
| 20260506014520 | 68 | 260 | 3.5 | 7.8 | 0.00 | 0.02 | 0.02 | 49 | 1008.7 |
| 20260506014043 | 68 | 193 | 4.3 | 10.4 | 0.00 | 0.02 | 0.02 | 49 | 1008.6 |
| 20260506013519 | 68 | 248 | 4.3 | 12.2 | 0.00 | 0.02 | 0.02 | 49 | 1008.5 |
| 20260506013012 | 68 | 236 | 5.2 | 9.6 | 0.00 | 0.02 | 0.02 | 49 | 1008.5 |
| 20260506012512 | 68 | 226 | 2.6 | 7.8 | 0.00 | 0.02 | 0.02 | 49 | 1008.4 |
| 20260506012012 | 68 | 242 | 3.5 | 7.8 | 0.00 | 0.02 | 0.02 | 48 | 1008.4 |
| 20260506011513 | 68 | 219 | 5.2 | 7.8 | 0.00 | 0.02 | 0.02 | 48 | 1008.4 |
| 20260506011025 | 69 | 213 | 3.5 | 9.6 | 0.00 | 0.02 | 0.02 | 47 | 1008.3 |
| 20260506010513 | 69 | 243 | 5.2 | 9.6 | 0.00 | 0.02 | 0.02 | 46 | 1008.2 |
| 20260506010013 | 69 | 236 | 4.3 | 7.8 | 0.00 | 0.02 | 0.02 | 46 | 1008.2 |
| 20260506005513 | 70 | 224 | 4.3 | 9.6 | 0.00 | 0.02 | 0.02 | 45 | 1008.2 |
| 20260506005012 | 70 | 232 | 4.3 | 9.6 | 0.00 | 0.02 | 0.02 | 44 | 1008.1 |
| 20260506004524 | 70 | 229 | 5.2 | 9.6 | 0.00 | 0.02 | 0.02 | 44 | 1008.0 |
| 20260506004013 | 70 | 259 | 3.5 | 7.0 | 0.00 | 0.02 | 0.02 | 44 | 1008.0 |
| 20260506003513 | 70 | 238 | 3.5 | 10.4 | 0.00 | 0.02 | 0.02 | 44 | 1008.1 |
| 20260506003013 | 70 | 276 | 7.0 | 10.4 | 0.00 | 0.02 | 0.02 | 43 | 1007.9 |
| 20260506002514 | 70 | 221 | 6.1 | 11.3 | 0.00 | 0.02 | 0.02 | 44 | 1007.8 |
| 20260506002023 | 70 | 230 | 5.2 | 11.3 | 0.00 | 0.02 | 0.02 | 44 | 1007.7 |
| 20260506001524 | 70 | 216 | 5.2 | 13.0 | 0.00 | 0.02 | 0.02 | 44 | 1007.6 |
| 20260506001024 | 71 | 224 | 6.1 | 15.6 | 0.00 | 0.02 | 0.02 | 43 | 1007.7 |
| 20260506000525 | 71 | 226 | 9.6 | 15.6 | 0.00 | 0.02 | 0.02 | 43 | 1007.7 |
| 20260505235012 | 71 | 215 | 7.0 | 12.2 | 0.00 | 0.02 | 0.02 | 44 | 1007.6 |
| 20260505234513 | 71 | 241 | 7.0 | 11.3 | 0.00 | 0.02 | 0.02 | 43 | 1007.7 |
| 20260505234014 | 71 | 240 | 7.8 | 10.4 | 0.00 | 0.02 | 0.02 | 44 | 1007.5 |
| 20260505233513 | 70 | 234 | 6.1 | 12.2 | 0.00 | 0.02 | 0.02 | 44 | 1007.6 |
| 20260505233024 | 71 | 230 | 6.1 | 12.2 | 0.00 | 0.02 | 0.02 | 45 | 1007.4 |
| 20260505232513 | 71 | 221 | 5.2 | 14.8 | 0.00 | 0.02 | 0.02 | 45 | 1007.5 |
| 20260505232024 | 71 | 224 | 7.8 | 13.0 | 0.00 | 0.02 | 0.02 | 45 | 1007.3 |
| 20260505231512 | 71 | 226 | 7.8 | 13.0 | 0.00 | 0.02 | 0.02 | 45 | 1007.5 |
| 20260505231013 | 71 | 242 | 7.8 | 12.2 | 0.00 | 0.02 | 0.02 | 44 | 1007.5 |
| 20260505230513 | 71 | 202 | 7.0 | 11.3 | 0.00 | 0.02 | 0.02 | 45 | 1007.4 |
| 20260505230013 | 71 | 233 | 4.3 | 11.3 | 0.00 | 0.02 | 0.02 | 46 | 1007.5 |
| 20260505225513 | 71 | 240 | 5.2 | 10.4 | 0.00 | 0.02 | 0.02 | 46 | 1007.5 |
| 20260505225024 | 71 | 219 | 6.1 | 13.9 | 0.00 | 0.02 | 0.02 | 45 | 1007.4 |
| 20260505224513 | 71 | 202 | 6.1 | 11.3 | 0.00 | 0.02 | 0.02 | 45 | 1007.2 |
| 20260505224013 | 71 | 255 | 7.0 | 13.0 | 0.00 | 0.02 | 0.02 | 45 | 1007.1 |
| 20260505223524 | 70 | 210 | 4.3 | 10.4 | 0.00 | 0.02 | 0.02 | 46 | 1007.0 |
| 20260505223013 | 70 | 225 | 6.1 | 10.4 | 0.00 | 0.02 | 0.02 | 46 | 1007.0 |
| 20260505222514 | 70 | 236 | 5.2 | 8.7 | 0.00 | 0.02 | 0.02 | 46 | 1007.2 |
| 20260505222013 | 70 | 221 | 4.3 | 10.4 | 0.00 | 0.02 | 0.02 | 46 | 1007.3 |
| 20260505221514 | 71 | 230 | 6.1 | 12.2 | 0.00 | 0.02 | 0.02 | 46 | 1007.3 |
| 20260505221013 | 71 | 226 | 5.2 | 13.0 | 0.00 | 0.02 | 0.02 | 46 | 1007.2 |
| 20260505220513 | 71 | 243 | 7.8 | 16.5 | 0.00 | 0.02 | 0.02 | 45 | 1007.2 |
| 20260505220024 | 71 | 198 | 9.6 | 19.1 | 0.00 | 0.02 | 0.02 | 45 | 1007.2 |
| 20260505215514 | 70 | 229 | 7.0 | 13.0 | 0.02 | 0.02 | 0.02 | 46 | 1007.2 |
| 20260505215013 | 70 | 233 | 6.1 | 13.0 | 0.02 | 0.02 | 0.02 | 47 | 1007.2 |
| 20260505214513 | 70 | 236 | 7.8 | 13.0 | 0.02 | 0.02 | 0.02 | 47 | 1007.2 |
| 20260505214013 | 70 | 219 | 7.0 | 14.8 | 0.02 | 0.02 | 0.02 | 49 | 1007.2 |
| 20260505213514 | 69 | 217 | 8.7 | 14.8 | 0.02 | 0.02 | 0.02 | 51 | 1007.0 |
| 20260505212514 | 68 | 242 | 2.6 | 7.8 | 0.02 | 0.02 | 0.02 | 63 | 1006.9 |
| 20260505212013 | 67 | 290 | 2.6 | 5.2 | 0.02 | 0.02 | 0.02 | 63 | 1006.8 |
| 20260505211514 | 66 | 215 | 2.6 | 5.2 | 0.02 | 0.02 | 0.02 | 69 | 1006.9 |
| 20260505211047 | 65 | 320 | 0.9 | 8.7 | 0.02 | 0.02 | 0.02 | 70 | 1006.9 |
| 20260505210514 | 66 | 117 | 2.6 | 20.9 | 0.02 | 0.02 | 0.02 | 69 | 1007.0 |
| 20260505210025 | 68 | 275 | 8.7 | 27.8 | 0.02 | 0.02 | 0.02 | 55 | 1007.4 |
| 20260505205514 | 71 | 224 | 16.5 | 27.8 | 0.00 | 0.00 | 0.00 | 45 | 1007.6 |
| 20260505205013 | 72 | 226 | 8.7 | 13.9 | 0.00 | 0.00 | 0.00 | 41 | 1006.8 |
| 20260505204514 | 72 | 233 | 5.2 | 15.6 | 0.00 | 0.00 | 0.00 | 41 | 1006.5 |
| 20260505204013 | 72 | 240 | 8.7 | 19.1 | 0.00 | 0.00 | 0.00 | 41 | 1006.5 |
| 20260505203514 | 73 | 233 | 9.6 | 20.9 | 0.00 | 0.00 | 0.00 | 40 | 1006.4 |
| 20260505203014 | 73 | 132 | 9.6 | 18.2 | 0.00 | 0.00 | 0.00 | 41 | 1006.5 |
| 20260505202514 | 73 | 220 | 9.6 | 19.1 | 0.00 | 0.00 | 0.00 | 41 | 1006.5 |
| 20260505202014 | 73 | 221 | 10.4 | 19.1 | 0.00 | 0.00 | 0.00 | 41 | 1006.4 |
| 20260505201514 | 73 | 239 | 7.8 | 17.4 | 0.00 | 0.00 | 0.00 | 40 | 1006.4 |
| 20260505201015 | 74 | 231 | 9.6 | 17.4 | 0.00 | 0.00 | 0.00 | 39 | 1006.2 |
| 20260505200513 | 74 | 234 | 12.2 | 23.5 | 0.00 | 0.00 | 0.00 | 38 | 1006.3 |
| 20260505200025 | 74 | 221 | 11.3 | 23.5 | 0.00 | 0.00 | 0.00 | 38 | 1006.3 |
| 20260505195514 | 74 | 195 | 9.6 | 20.9 | 0.00 | 0.00 | 0.00 | 38 | 1006.2 |
| 20260505195025 | 74 | 223 | 7.0 | 20.0 | 0.00 | 0.00 | 0.00 | 40 | 1006.4 |
| 20260505194526 | 74 | 252 | 12.2 | 21.7 | 0.00 | 0.00 | 0.00 | 39 | 1006.4 |
| 20260505194014 | 75 | 228 | 13.0 | 20.9 | 0.00 | 0.00 | 0.00 | 38 | 1006.1 |
| 20260505193526 | 75 | 232 | 9.6 | 14.8 | 0.00 | 0.00 | 0.00 | 40 | 1006.2 |
| 20260505193014 | 75 | 223 | 8.7 | 14.8 | 0.00 | 0.00 | 0.00 | 40 | 1006.6 |
| 20260505192515 | 75 | 205 | 8.7 | 19.1 | 0.00 | 0.00 | 0.00 | 39 | 1006.7 |
| 20260505192014 | 75 | 242 | 10.4 | 19.1 | 0.00 | 0.00 | 0.00 | 38 | 1006.9 |
| 20260505191514 | 75 | 224 | 9.6 | 15.6 | 0.00 | 0.00 | 0.00 | 40 | 1007.0 |
| 20260505191014 | 75 | 259 | 7.0 | 17.4 | 0.00 | 0.00 | 0.00 | 40 | 1007.0 |
| 20260505190514 | 75 | 220 | 7.0 | 20.0 | 0.00 | 0.00 | 0.00 | 40 | 1007.1 |
| 20260505190018 | 75 | 226 | 11.3 | 20.0 | 0.00 | 0.00 | 0.00 | 42 | 1007.1 |
| 20260505185514 | 74 | 243 | 9.6 | 20.0 | 0.00 | 0.00 | 0.00 | 43 | 1007.3 |
| 20260505185014 | 74 | 202 | 7.0 | 23.5 | 0.00 | 0.00 | 0.00 | 42 | 1007.3 |
| 20260505184516 | 74 | 255 | 9.6 | 16.5 | 0.00 | 0.00 | 0.00 | 42 | 1007.4 |
| 20260505184026 | 73 | 217 | 7.0 | 18.2 | 0.00 | 0.00 | 0.00 | 42 | 1007.4 |
| 20260505183514 | 74 | 235 | 11.3 | 18.2 | 0.00 | 0.00 | 0.00 | 40 | 1007.4 |
| 20260505183014 | 74 | 243 | 11.3 | 17.4 | 0.00 | 0.00 | 0.00 | 41 | 1007.5 |
| 20260505182525 | 74 | 233 | 10.4 | 14.8 | 0.00 | 0.00 | 0.00 | 40 | 1007.5 |
| 20260505182014 | 74 | 175 | 7.0 | 20.0 | 0.00 | 0.00 | 0.00 | 42 | 1007.5 |
| 20260505181514 | 73 | 207 | 10.4 | 21.7 | 0.00 | 0.00 | 0.00 | 41 | 1007.8 |
| 20260505181015 | 73 | 246 | 10.4 | 20.0 | 0.00 | 0.00 | 0.00 | 41 | 1007.7 |
| 20260505180514 | 74 | 190 | 8.7 | 20.0 | 0.00 | 0.00 | 0.00 | 41 | 1007.6 |
| 20260505180025 | 73 | 245 | 13.0 | 27.8 | 0.00 | 0.00 | 0.00 | 41 | 1007.6 |
| 20260505175514 | 74 | 238 | 13.9 | 27.8 | 0.00 | 0.00 | 0.00 | 40 | 1007.9 |
| 20260505175016 | 74 | 219 | 10.4 | 24.3 | 0.00 | 0.00 | 0.00 | 40 | 1007.7 |
| 20260505174514 | 74 | 248 | 12.2 | 23.5 | 0.00 | 0.00 | 0.00 | 39 | 1007.5 |
| 20260505174014 | 75 | 232 | 15.6 | 23.5 | 0.00 | 0.00 | 0.00 | 38 | 1007.6 |
| 20260505173514 | 74 | 261 | 10.4 | 18.2 | 0.00 | 0.00 | 0.00 | 41 | 1007.7 |
| 20260505173015 | 74 | 191 | 10.4 | 20.0 | 0.00 | 0.00 | 0.00 | 44 | 1007.6 |
| 20260505172514 | 73 | 207 | 12.2 | 20.0 | 0.00 | 0.00 | 0.00 | 42 | 1007.8 |
| 20260505172015 | 73 | 245 | 13.0 | 23.5 | 0.00 | 0.00 | 0.00 | 43 | 1007.7 |
| 20260505171515 | 73 | 238 | 13.9 | 23.5 | 0.00 | 0.00 | 0.00 | 43 | 1007.7 |
| 20260505171015 | 73 | 261 | 13.0 | 20.9 | 0.00 | 0.00 | 0.00 | 42 | 1007.8 |
| 20260505170514 | 73 | 221 | 8.7 | 21.7 | 0.00 | 0.00 | 0.00 | 44 | 1007.8 |
| 20260505170018 | 72 | 241 | 13.0 | 21.7 | 0.00 | 0.00 | 0.00 | 43 | 1007.9 |
| 20260505165515 | 72 | 221 | 11.3 | 19.1 | 0.00 | 0.00 | 0.00 | 44 | 1007.8 |
| 20260505165015 | 72 | 202 | 13.0 | 20.9 | 0.00 | 0.00 | 0.00 | 43 | 1007.8 |
| 20260505164515 | 72 | 231 | 11.3 | 20.9 | 0.00 | 0.00 | 0.00 | 44 | 1008.1 |
| 20260505164014 | 72 | 233 | 11.3 | 18.2 | 0.00 | 0.00 | 0.00 | 45 | 1008.1 |
| 20260505163527 | 73 | 245 | 8.7 | 20.9 | 0.00 | 0.00 | 0.00 | 43 | 1008.1 |
| 20260505163015 | 73 | 187 | 8.7 | 18.2 | 0.00 | 0.00 | 0.00 | 47 | 1008.1 |
| 20260505162528 | 73 | 223 | 12.2 | 19.1 | 0.00 | 0.00 | 0.00 | 44 | 1008.1 |
| 20260505162016 | 73 | 220 | 10.4 | 19.1 | 0.00 | 0.00 | 0.00 | 45 | 1008.2 |
| 20260505161516 | 73 | 212 | 12.2 | 17.4 | 0.00 | 0.00 | 0.00 | 45 | 1008.3 |
| 20260505161016 | 73 | 261 | 6.1 | 15.6 | 0.00 | 0.00 | 0.00 | 46 | 1008.2 |
| 20260505160516 | 72 | 210 | 5.2 | 19.1 | 0.00 | 0.00 | 0.00 | 48 | 1008.3 |
| 20260505153016 | 72 | 234 | 11.3 | 19.1 | 0.00 | 0.00 | 0.00 | 48 | 1008.8 |
| 20260505152516 | 71 | 251 | 8.7 | 20.9 | 0.00 | 0.00 | 0.00 | 48 | 1008.8 |
| 20260505152016 | 72 | 218 | 11.3 | 20.9 | 0.00 | 0.00 | 0.00 | 48 | 1009.0 |
| 20260505151517 | 71 | 226 | 9.6 | 20.9 | 0.00 | 0.00 | 0.00 | 50 | 1008.9 |
| 20260505150518 | 72 | 188 | 7.8 | 14.8 | 0.00 | 0.00 | 0.00 | 50 | 1008.9 |
| 20260505140516 | 68 | 227 | 12.2 | 21.7 | 0.00 | 0.00 | 0.00 | 52 | 1009.0 |
| 20260505125016 | 65 | 238 | 7.0 | 17.4 | 0.00 | 0.00 | 0.00 | 59 | 1009.3 |
| 20260505124527 | 64 | 251 | 11.3 | 19.1 | 0.00 | 0.00 | 0.00 | 58 | 1009.3 |
| 20260505124028 | 64 | 250 | 11.3 | 19.1 | 0.00 | 0.00 | 0.00 | 59 | 1009.3 |
| 20260505123517 | 64 | 241 | 7.0 | 13.9 | 0.00 | 0.00 | 0.00 | 59 | 1009.3 |
| 20260505123016 | 63 | 217 | 6.1 | 10.4 | 0.00 | 0.00 | 0.00 | 61 | 1009.1 |
| 20260505122539 | 63 | 243 | 5.2 | 10.4 | 0.00 | 0.00 | 0.00 | 61 | 1009.1 |
| 20260505122016 | 63 | 217 | 5.2 | 10.4 | 0.00 | 0.00 | 0.00 | 63 | 1009.1 |
| 20260505121550 | 62 | 241 | 6.1 | 9.6 | 0.00 | 0.00 | 0.00 | 63 | 1009.2 |
| 20260505121016 | 62 | 228 | 6.1 | 9.6 | 0.00 | 0.00 | 0.00 | 64 | 1009.3 |
| 20260505120539 | 61 | 248 | 4.3 | 9.6 | 0.00 | 0.00 | 0.00 | 65 | 1009.2 |
| 20260505120017 | 61 | 227 | 4.3 | 8.7 | 0.00 | 0.00 | 0.00 | 66 | 1009.2 |
| 20260505115516 | 60 | 235 | 4.3 | 12.2 | 0.00 | 0.00 | 0.00 | 67 | 1009.3 |
| 20260505115017 | 60 | 252 | 5.2 | 12.2 | 0.00 | 0.00 | 0.00 | 67 | 1009.3 |
| 20260505114516 | 60 | 227 | 6.1 | 11.3 | 0.00 | 0.00 | 0.00 | 68 | 1009.3 |